Edinburgh Airport, United Kingdom

7:09 AM GMT on December 17, 2017 (GMT +0000)
Edinburgh Airport

Weather History for EGPH - June, 2013

Change the Weather History Date:

Wednesday, June 12, 2013

  Actual Average Record
Temperature  
Mean Temperature 58 °F -  
Max Temperature 64 °F 64 °F 69 °F (2004)
Min Temperature 51 °F 49 °F 35 °F (1998)
Degree Days  
Heating Degree Days 8    
Growing Degree Days 8 (Base 50)    
Moisture  
Dew Point 51 °F    
Average Humidity 81    
Maximum Humidity 100    
Minimum Humidity 67    
Precipitation  
Precipitation 0.00 in 0.07 in - ()
Sea Level Pressure  
Sea Level Pressure 29.61 in    
Wind  
Wind Speed 7 mph ()    
Max Wind Speed 18 mph    
Max Gust Speed -    
Visibility 6.1 miles    
Events Rain    
Averages and records for this station are not official NWS values.
T = Trace of Precipitation, MM = Missing Value Source: Averaged Metar Reports

Daily Weather History Graph

Daily Weather History Graph

Search for Another Location

Airport or City:

Trip Planner

Search our weather history database for the weather conditions in past years. The results will help you decide how hot, cold, wet, or windy it might be!

Date:

Astronomy

Jun. 12, 2013 Rise Set
Actual Time 4:27 AM BST 9:59 PM BST
Civil Twilight 3:26 AM BST 11:00 PM BST
Nautical Twilight 1:45 AM BST 12:40 AM BST
Astronomical Twilight Sun does not rise Sun does not rise
Moon 8:26 AM BST (6/12) 11:47 PM BST (6/12)
Length of Visible Light 19h 34m
Length of Day
17h 31m
Waxing Crescent, 13% of the Moon is Illuminated
Jun 12
Waxing Crescent
Jun 16
First Quarter
Jun 23
Full
Jun 30
Last Quarter
Jul 8
New

Hourly Weather History & Observations

Time (BST) Temp. Dew Point Humidity Pressure Visibility Wind Dir Wind Speed Gust Speed Precip Events Conditions
12:20 AM 57.2 °F 50.0 °F 77% 29.71 in 6.2 mi SSE 4.6 mph - N/A   Unknown
12:50 AM 57.2 °F 48.2 °F 72% 29.68 in - South 6.9 mph - N/A   Clear
1:20 AM 57.2 °F 48.2 °F 72% 29.68 in 6.2 mi South 6.9 mph - N/A Rain Light Rain
1:50 AM 55.4 °F 48.2 °F 77% 29.68 in 6.2 mi SSE 6.9 mph - N/A Rain Light Rain
2:20 AM 55.4 °F 48.2 °F 77% 29.68 in 6.2 mi SSE 4.6 mph - N/A Rain Light Rain
2:50 AM 53.6 °F 50.0 °F 88% 29.68 in - Variable 2.3 mph - N/A Rain Rain
3:20 AM 51.8 °F 50.0 °F 94% 29.65 in 3.1 mi ENE 4.6 mph - N/A Rain Light Rain
3:50 AM 53.6 °F 51.8 °F 94% 29.65 in 6.2 mi ESE 6.9 mph - N/A Rain Light Rain
4:20 AM 53.6 °F 51.8 °F 94% 29.62 in 6.2 mi SE 8.1 mph - N/A   Mostly Cloudy
4:50 AM 53.6 °F 51.8 °F 94% 29.62 in 6.2 mi SE 4.6 mph - N/A   Mostly Cloudy
5:20 AM 53.6 °F 51.8 °F 94% 29.62 in 6.2 mi NE 4.6 mph - N/A   Mostly Cloudy
5:50 AM 53.6 °F 51.8 °F 94% 29.62 in 6.2 mi ENE 4.6 mph - N/A   Mostly Cloudy
6:20 AM 53.6 °F 53.6 °F 100% 29.62 in 6.2 mi ENE 5.8 mph - N/A   Scattered Clouds
6:50 AM 53.6 °F 53.6 °F 100% 29.59 in 6.2 mi NE 4.6 mph - N/A   Mostly Cloudy
7:20 AM 55.4 °F 53.6 °F 94% 29.59 in 6.2 mi ENE 3.5 mph - N/A   Mostly Cloudy
7:50 AM 55.4 °F 53.6 °F 94% 29.59 in 6.2 mi North 3.5 mph - N/A   Mostly Cloudy
8:20 AM 55.4 °F 53.6 °F 94% 29.59 in 6.2 mi Variable 2.3 mph - N/A Rain Light Rain
8:50 AM 55.4 °F 53.6 °F 94% 29.59 in - Variable 3.5 mph - N/A   Drizzle
9:20 AM 55.4 °F 53.6 °F 94% 29.59 in 3.7 mi Variable 2.3 mph - N/A   Mostly Cloudy
9:50 AM 57.2 °F 55.4 °F 94% 29.59 in 6.2 mi Variable 3.5 mph - N/A   Mostly Cloudy
10:20 AM 57.2 °F 55.4 °F 94% 29.59 in 6.2 mi WSW 6.9 mph - N/A   Mostly Cloudy
10:50 AM 59.0 °F 53.6 °F 82% 29.59 in 6.2 mi WSW 8.1 mph - N/A   Mostly Cloudy
11:20 AM 59.0 °F 53.6 °F 82% 29.59 in 6.2 mi West 8.1 mph - N/A   Mostly Cloudy
11:50 AM 59.0 °F 51.8 °F 77% 29.62 in 6.2 mi WSW 9.2 mph - N/A   Mostly Cloudy
12:20 PM 59.0 °F 53.6 °F 82% 29.62 in 6.2 mi WSW 12.7 mph - N/A   Mostly Cloudy
12:50 PM 60.8 °F 53.6 °F 77% 29.59 in 6.2 mi West 11.5 mph - N/A   Mostly Cloudy
1:20 PM 62.6 °F 53.6 °F 72% 29.59 in 6.2 mi SW 15.0 mph - N/A   Mostly Cloudy
1:50 PM 62.6 °F 51.8 °F 68% 29.59 in 6.2 mi SW 15.0 mph - N/A   Mostly Cloudy
2:20 PM 62.6 °F 51.8 °F 68% 29.59 in 6.2 mi SW 15.0 mph - N/A   Mostly Cloudy
2:50 PM 60.8 °F 51.8 °F 72% 29.59 in 6.2 mi SW 16.1 mph - N/A   Mostly Cloudy
3:20 PM 60.8 °F 51.8 °F 72% 29.59 in 6.2 mi SW 13.8 mph - N/A   Mostly Cloudy
3:50 PM 64.4 °F 53.6 °F 68% 29.59 in 6.2 mi West 13.8 mph - N/A   Mostly Cloudy
4:20 PM 62.6 °F 51.8 °F 68% 29.59 in 6.2 mi WSW 16.1 mph - N/A   Mostly Cloudy
4:50 PM 62.6 °F 51.8 °F 68% 29.59 in 6.2 mi SW 18.4 mph - N/A   Mostly Cloudy
5:20 PM 60.8 °F 51.8 °F 72% 29.62 in 6.2 mi WSW 18.4 mph - N/A   Mostly Cloudy
5:50 PM 59.0 °F 51.8 °F 77% 29.62 in 6.2 mi WSW 18.4 mph - N/A   Mostly Cloudy
6:20 PM 59.0 °F 50.0 °F 72% 29.62 in 6.2 mi WSW 16.1 mph - N/A   Mostly Cloudy
6:50 PM 59.0 °F 50.0 °F 72% 29.59 in 6.2 mi WSW 11.5 mph - N/A   Scattered Clouds
7:20 PM 60.8 °F 50.0 °F 68% 29.59 in 6.2 mi WSW 9.2 mph - N/A   Scattered Clouds
7:50 PM 60.8 °F 50.0 °F 68% 29.59 in 6.2 mi WSW 10.4 mph - N/A   Scattered Clouds
8:20 PM 59.0 °F 50.0 °F 72% 29.59 in 6.2 mi West 6.9 mph - N/A   Scattered Clouds
8:50 PM 59.0 °F 48.2 °F 67% 29.59 in 6.2 mi West 9.2 mph - N/A   Partly Cloudy
9:20 PM 59.0 °F 50.0 °F 72% 29.59 in 6.2 mi West 5.8 mph - N/A   Scattered Clouds
9:50 PM 59.0 °F 50.0 °F 72% 29.59 in 6.2 mi West 5.8 mph - N/A Rain Light Rain
10:20 PM 55.4 °F 48.2 °F 77% 29.59 in 6.2 mi West 4.6 mph - N/A   Mostly Cloudy
10:50 PM 55.4 °F 48.2 °F 77% 29.59 in 6.2 mi West 4.6 mph - N/A   Scattered Clouds
11:20 PM 53.6 °F 48.2 °F 82% 29.59 in 6.2 mi West 3.5 mph - N/A   Scattered Clouds
11:50 PM 51.8 °F 48.2 °F 88% 29.59 in 6.2 mi WSW 3.5 mph - N/A   Partly Cloudy